[[{"header":{"parameterUnit":"m.s-1","parameterCategory":1,"la1":30.2991,"la2":30.254,"lo1":-89.0895,"lo2":-89.0444,"dy":0.0017,"dx":0.0017,"nx":28,"ny":28,"refTime":"2025-06-21T21:00:00:Z","depth":0,"parameterNumber":2,"parameterNumberName":"U-component_of_WINDS"},"data":[0,0,0,0,0,0,0,0,0,0,0,0,0,0,0,0,0,0,0,0,0,0,0,0,0,0,0,0,0,0,0,0,0,0,0,0,0,0,0,0,0,0,0,0,0,0,0,0,0,0,0,0,0,0,0,0,0,0,0.319,0.3191,0,0.3294,0.3295,0.3296,0.3342,0.3342,0.3342,0.3342,0.3447,0.345,0.3453,0,0,0,0,0,0,0,0,0,0,0,0,0,0.303,0.3033,0.319,0.3191,0.3193,0.3294,0.3295,0.3297,0.3342,0.3342,0.3342,0.3342,0.3446,0.345,0.3453,0,0,0,0,0,0,0,0,0,0,0,0,0,0.3113,0.3034,0.319,0.3228,0.3232,0.3293,0.3295,0.3297,0.3342,0.3342,0.3342,0.3342,0.3445,0.345,0.3454,0.3485,0,0,0.3467,0.3469,0,0,0,0,0,0,0,0,0.3108,0.3119,0.3221,0.3225,0.323,0.3305,0.3278,0.336,0.3342,0.33,0.3342,0.3341,0.34,0.3408,0.3428,0.349,0.3495,0.3468,0.3471,0.3472,0.3474,0,0,0,0,0,0,0,0.3103,0.3115,0.3231,0.3222,0.3228,0.3239,0.3251,0.3293,0.335,0.3304,0.3308,0.3319,0.3403,0.3424,0.3431,0.3496,0.3468,0.3472,0.3474,0.3476,0.3589,0.3589,0,0,0,0,0,0,0.3091,0.311,0.3228,0.3234,0.3168,0.3242,0.3255,0.3281,0.335,0.336,0.3319,0.3321,0.3416,0.3426,0.3435,0.3476,0.3472,0.3477,0.3479,0.3588,0.3589,0.3589,0,0,0,0,0,0,0.3087,0.3101,0.3224,0.3173,0.319,0.3245,0.3274,0.3283,0.3305,0.3361,0.3372,0.3331,0.3417,0.3429,0.3472,0.348,0.3478,0.3483,0.3588,0.3589,0.3589,0.3558,0,0,0,0,0,0,0.3082,0.3099,0.3112,0.3173,0.3192,0.326,0.3275,0.3285,0.3312,0.3315,0.3375,0.3384,0.3417,0.3465,0.3477,0.3486,0.3486,0.3588,0.3588,0.3589,0.3559,0.3558,0.3557,0,0,0,0,0,0.3077,0.3099,0.3113,0.3127,0.3209,0.326,0.3271,0.3309,0.3313,0.3326,0.3362,0.3382,0.3477,0.347,0.3483,0.3494,0.3587,0.3588,0.3589,0.3559,0.3558,0.3557,0,0,0,0,0,0,0.3038,0.3108,0.3124,0.3167,0.3207,0.3268,0.3286,0.3306,0.3346,0.3347,0.3392,0.3405,0.3445,0.3474,0.3464,0.3527,0.3534,0.3537,0.3507,0.3506,0.3505,0.3498,0.349,0,0,0,0,0,0.3035,0.3071,0.313,0.3162,0.3182,0.323,0.3253,0.3279,0.3322,0.334,0.3379,0.342,0.346,0.3484,0.3524,0.3563,0.3576,0.3577,0.3576,0.3575,0.3577,0.36,0.3601,0.3592,0.3592,0.3592,0,0,0.3028,0.3071,0.3091,0.3155,0.319,0.3225,0.3244,0.3281,0.3308,0.3345,0.3389,0.3419,0.3468,0.351,0.353,0.3535,0.3582,0.3576,0.3574,0.3578,0.3601,0.3601,0.3602,0.3592,0.3592,0.3592,0,0,0.3034,0.307,0.3101,0.3135,0.3186,0.3218,0.3225,0.3283,0.3305,0.3349,0.3378,0.341,0.3476,0.351,0.3536,0.3553,0.3573,0.3565,0.3559,0.3581,0.3581,0.3582,0.3588,0.359,0.3567,0.3567,0.3567,0,0.3019,0.3075,0.3114,0.315,0.3177,0.3212,0.3244,0.3274,0.3336,0.3354,0.3358,0.3442,0.3478,0.3527,0.3531,0.3551,0.356,0.3558,0.3578,0.3579,0.3581,0.3587,0.3589,0.3565,0.3566,0.3566,0.3566,0,0.3054,0.3091,0.311,0.3169,0.3198,0.3231,0.3275,0.33,0.3323,0.3354,0.3398,0.3442,0.349,0.3504,0.3526,0.3556,0.3558,0.3569,0.3577,0.3579,0.3586,0.3589,0.3563,0.3564,0.3564,0.3565,0,0,0.304,0.3119,0.3125,0.3152,0.3211,0.3241,0.3275,0.3322,0.3343,0.3383,0.3413,0.3468,0.3479,0.3508,0.3534,0.3553,0.3564,0.3563,0.3565,0.3562,0.36,0.3591,0.3593,0.3577,0.3578,0.3578,0.3596,0,0.3054,0.3117,0.3154,0.3202,0.3237,0.327,0.33,0.3339,0.3369,0.3402,0.3435,0.3473,0.3485,0.3503,0.3523,0.3558,0.3572,0.3558,0.3605,0.3606,0.3592,0.3596,0.3587,0.3601,0.3598,0.3599,0.3599,0,0.3079,0.312,0.3171,0.3226,0.3242,0.3268,0.3314,0.3346,0.3391,0.3411,0.3443,0.3469,0.3506,0.351,0.3561,0.355,0.3571,0.3592,0.3593,0.3599,0.3603,0.3603,0.3607,0.3609,0.3604,0.3603,0.3603,0,0.3064,0.3131,0.3171,0.3192,0.3257,0.3274,0.3302,0.3346,0.3372,0.3412,0.3429,0.3473,0.3497,0.3529,0.3566,0.3566,0.3614,0.3621,0.3631,0.363,0.364,0.3639,0.3648,0.3653,0.3653,0.3653,0.3653,0,0.3076,0.3106,0.3164,0.3189,0.3223,0.3264,0.3297,0.3327,0.3366,0.3397,0.3428,0.3456,0.3503,0.3536,0.3565,0.3603,0.3613,0.3631,0.3638,0.3628,0.3626,0.3643,0.3643,0.3654,0.3654,0.3654,0.3654,0,0.3065,0.3105,0.315,0.3207,0.3222,0.3245,0.3294,0.3319,0.335,0.3388,0.3399,0.3447,0.3488,0.3528,0.3583,0.3602,0.364,0.365,0.3625,0.3629,0.3637,0.3636,0.3658,0.3663,0.3664,0.3664,0.3664,0,0.307,0.3095,0.3154,0.3177,0.3204,0.324,0.3267,0.3307,0.3333,0.3386,0.3404,0.3447,0.3484,0.3547,0.3587,0.3629,0.364,0.3645,0.3647,0.3636,0.364,0.3639,0.3641,0.3644,0.3644,0.3643,0.3643,0,0.3076,0.3094,0.3132,0.3176,0.3206,0.3243,0.328,0.3297,0.3345,0.3372,0.3415,0.3443,0.3499,0.3541,0.3588,0.3616,0.3637,0.3642,0.3647,0.3637,0.3622,0.363,0.3622,0.3642,0.3642,0.3642,0.3642,0.3642,0.3074,0.3096,0.3142,0.3182,0.3215,0.3249,0.3275,0.3309,0.3345,0.3393,0.3415,0.3457,0.35,0.3565,0.3592,0.3626,0.3631,0.3638,0.364,0.3641,0.3639,0.3616,0.3634,0.3635,0.3635,0.3635,0.3635,0,0.3081,0.3111,0.3148,0.32,0.3231,0.3249,0.3291,0.3316,0.3353,0.3391,0.3427,0.3475,0.3516,0.3559,0.3602,0.362,0.3631,0.363,0.363,0.3636,0.3631,0.3623,0.3621,0.3621,0.3621,0.3621,0.3621,0.3621,0.3088,0.3128,0.3151,0.3207,0.3238,0.328,0.3302,0.3334,0.3365,0.3417,0.3451,0.3479,0.3519,0.3565,0.3603,0.3615,0.3629,0.3626,0.364,0.3635,0.3636,0.3637,0.3629,0.3628,0.3628,0.3642,0.3642,0.3642]},{"header":{"parameterUnit":"m.s-1","parameterCategory":1,"la1":30.2991,"la2":30.254,"lo1":-89.0895,"lo2":-89.0444,"dy":0.0017,"dx":0.0017,"nx":28,"ny":28,"refTime":"2025-06-21T21:00:00:Z","depth":0,"parameterNumber":3,"parameterNumberName":"V-component_of_WINDS"},"data":[0,0,0,0,0,0,0,0,0,0,0,0,0,0,0,0,0,0,0,0,0,0,0,0,0,0,0,0,0,0,0,0,0,0,0,0,0,0,0,0,0,0,0,0,0,0,0,0,0,0,0,0,0,0,0,0,0,0,2.5856,2.5855,0,2.5797,2.5797,2.5796,2.5765,2.5765,2.5765,2.5765,2.5701,2.5699,2.5697,0,0,0,0,0,0,0,0,0,0,0,0,0,2.5935,2.5934,2.5856,2.5855,2.5854,2.5798,2.5797,2.5796,2.5765,2.5765,2.5765,2.5765,2.5701,2.5699,2.5697,0,0,0,0,0,0,0,0,0,0,0,0,0,2.5891,2.5934,2.5856,2.5832,2.583,2.5798,2.5797,2.5796,2.5765,2.5765,2.5765,2.5765,2.5702,2.5699,2.5697,2.5682,0,0,2.5689,2.5688,0,0,0,0,0,0,0,0,2.5894,2.5888,2.5836,2.5834,2.5831,2.5789,2.5801,2.5758,2.5765,2.579,2.5765,2.5765,2.573,2.5725,2.5714,2.5679,2.5677,2.5689,2.5687,2.5686,2.5686,0,0,0,0,0,0,0,2.5897,2.5891,2.5832,2.5836,2.5832,2.5823,2.5817,2.5793,2.576,2.5787,2.5785,2.5779,2.5728,2.5716,2.5712,2.5676,2.5689,2.5687,2.5685,2.5684,2.5626,2.5626,0,0,0,0,0,0,2.5904,2.5893,2.5834,2.5831,2.5863,2.5822,2.5815,2.5802,2.5761,2.5754,2.5779,2.5778,2.5721,2.5715,2.571,2.569,2.5686,2.5684,2.5682,2.5626,2.5626,2.5626,0,0,0,0,0,0,2.5906,2.5899,2.5837,2.5861,2.5853,2.582,2.5807,2.5801,2.5789,2.5754,2.5748,2.5773,2.572,2.5713,2.569,2.5687,2.5683,2.568,2.5626,2.5626,2.5626,2.5651,0,0,0,0,0,0,2.5909,2.59,2.5896,2.5862,2.5852,2.5819,2.5807,2.58,2.5786,2.5783,2.5747,2.5741,2.572,2.5694,2.5687,2.5684,2.5678,2.5626,2.5626,2.5626,2.565,2.5651,2.5653,0,0,0,0,0,2.5912,2.5904,2.5896,2.5888,2.5845,2.5819,2.5813,2.579,2.5786,2.578,2.5757,2.5742,2.5689,2.5692,2.5684,2.568,2.5626,2.5626,2.5626,2.5649,2.5651,2.5653,0,0,0,0,0,0,2.5936,2.5899,2.5889,2.587,2.5848,2.5814,2.5806,2.5793,2.577,2.5769,2.574,2.5732,2.5711,2.5693,2.5696,2.5663,2.5656,2.5654,2.5676,2.5678,2.5679,2.5683,2.5676,0,0,0,0,0,2.594,2.5923,2.5891,2.5877,2.5867,2.5839,2.5826,2.5811,2.5786,2.5776,2.5751,2.5727,2.5704,2.569,2.5667,2.5647,2.5638,2.5641,2.5642,2.5643,2.5642,2.563,2.563,2.5626,2.5626,2.5626,0,0,2.5946,2.5924,2.5915,2.5881,2.5863,2.5845,2.5831,2.5812,2.5798,2.5772,2.5749,2.5731,2.5701,2.5679,2.5668,2.5663,2.5642,2.5643,2.5645,2.5643,2.563,2.563,2.5631,2.5626,2.5626,2.5626,0,0,2.5949,2.5931,2.5917,2.5899,2.5872,2.5853,2.585,2.5818,2.5805,2.5782,2.5762,2.5744,2.5706,2.5686,2.567,2.5666,2.5651,2.566,2.5667,2.5655,2.5656,2.5656,2.5654,2.5654,2.5659,2.5659,2.5659,0,2.596,2.5934,2.5912,2.5895,2.5881,2.5858,2.5844,2.5827,2.5792,2.5782,2.5778,2.573,2.5708,2.5682,2.5681,2.567,2.5664,2.5663,2.5658,2.5658,2.5658,2.5655,2.5655,2.566,2.566,2.566,2.566,0,2.5949,2.5931,2.5923,2.5893,2.5877,2.5862,2.5836,2.5823,2.5809,2.579,2.5767,2.574,2.5712,2.5704,2.5689,2.5675,2.5673,2.5664,2.5655,2.566,2.5657,2.5656,2.5662,2.5661,2.5661,2.5661,0,0,2.5964,2.5923,2.592,2.5906,2.5875,2.586,2.5843,2.5817,2.5806,2.5783,2.5767,2.5736,2.5728,2.571,2.5693,2.5683,2.5681,2.5675,2.5673,2.5676,2.5663,2.5671,2.567,2.5672,2.5671,2.5671,2.5666,0,2.5962,2.5933,2.5913,2.589,2.5873,2.5852,2.5837,2.5815,2.5798,2.5779,2.5759,2.5737,2.5728,2.5717,2.5707,2.5684,2.5678,2.5684,2.5655,2.5655,2.5663,2.5669,2.5676,2.5673,2.5665,2.5665,2.5664,0,2.5955,2.5935,2.5912,2.5883,2.5875,2.5862,2.5837,2.582,2.5795,2.5782,2.5764,2.5746,2.5726,2.572,2.5692,2.5696,2.5683,2.567,2.5669,2.5665,2.5659,2.5664,2.5671,2.567,2.5663,2.5663,2.5663,0,2.5969,2.5936,2.5918,2.5906,2.5872,2.5863,2.5848,2.5823,2.5809,2.5786,2.5776,2.5751,2.5737,2.5717,2.5693,2.5691,2.5667,2.5659,2.5655,2.5655,2.565,2.5651,2.5654,2.5643,2.5643,2.5643,2.5643,0,2.5969,2.5955,2.5924,2.5912,2.5896,2.5873,2.5857,2.584,2.5817,2.5801,2.5781,2.5766,2.5735,2.5716,2.5697,2.5676,2.567,2.5658,2.5653,2.566,2.5661,2.565,2.565,2.5642,2.5643,2.5643,2.5643,0,2.5981,2.5959,2.5938,2.5908,2.59,2.5889,2.5862,2.585,2.5831,2.5811,2.5805,2.5776,2.5752,2.5727,2.5694,2.5681,2.5661,2.5654,2.567,2.5667,2.5665,2.5665,2.5661,2.5659,2.5649,2.5649,2.565,0,2.5982,2.5971,2.594,2.5929,2.5915,2.5897,2.5883,2.5859,2.5845,2.5816,2.5806,2.5782,2.5761,2.5724,2.5699,2.5674,2.5666,2.5666,2.5661,2.5669,2.5665,2.5666,2.5664,2.5667,2.5667,2.5667,2.5667,0,2.5985,2.5976,2.5957,2.5935,2.592,2.5901,2.5881,2.5873,2.5844,2.583,2.5807,2.5791,2.5758,2.5734,2.5706,2.5688,2.5673,2.5669,2.5667,2.5673,2.5683,2.5677,2.5673,2.5669,2.5669,2.5669,2.5669,2.5669,2.5991,2.5981,2.5958,2.5938,2.5921,2.5904,2.5891,2.5872,2.5852,2.5826,2.5812,2.5789,2.5763,2.5724,2.5707,2.5688,2.5683,2.568,2.5679,2.5678,2.568,2.5687,2.5683,2.5683,2.5682,2.5682,2.5682,0,2.5994,2.5978,2.5961,2.5935,2.5919,2.5908,2.5885,2.5873,2.5853,2.5831,2.5812,2.5785,2.5761,2.5735,2.5709,2.5698,2.5691,2.5692,2.5693,2.5689,2.5686,2.569,2.5699,2.5699,2.5699,2.5699,2.5699,2.5699,2.5993,2.5976,2.5963,2.5936,2.592,2.5899,2.5887,2.587,2.5853,2.5824,2.5805,2.5789,2.5765,2.5737,2.5715,2.5707,2.5698,2.5702,2.5693,2.569,2.5689,2.5688,2.5692,2.5701,2.5701,2.5697,2.5697,2.5697]}]]